Location: Aranbee
(34.0885°N, 118.2342°W)
Time: 09:38:19
(UTC+00:00)

Courier 1B Rocket - Pass Details

Date: 05 December 2020
Orbit: 920 x 1202 km, 28.2° (Epoch: 27 January)

Event Time Altitude Azimuth Distance (km) Brightness Sun altitude
Rises 10:22:48 0° 235° (SW) 3,901 - -53.4°
Reaches altitude 10° 10:25:41 10° 228° (SW) 2,986 - -52.8°
Maximum altitude 10:32:28 39° 162° (SSE) 1,668 - -51.4°
Exits shadow 10:37:36 18° 104° (ESE) 2,542 7.5 -50.3°
Drops below altitude 10° 10:39:34 10° 97° (E) 3,119 8.1 -49.9°
Sets 10:42:38 0° 90° (E) 4,094 8.9 -49.3°
